[[{"header":{"parameterUnit":"m.s-1","parameterCategory":1,"la1":30.2991,"la2":30.254,"lo1":-89.0895,"lo2":-89.0444,"dy":0.0017,"dx":0.0017,"nx":28,"ny":28,"refTime":"2024-07-03T09:00:00:Z","depth":0,"parameterNumber":2,"parameterNumberName":"U-component_of_WINDS"},"data":[0,0,0,0,0,0,0,0,0,0,0,0,0,0,0,0,0,0,0,0,0,0,0,0,0,0,0,0,0,0,0,0,0,0,0,0,0,0,0,0,0,0,0,0,0,0,0,0,0,0,0,0,0,0,0,0,0,0,-0.2531,-0.253,0,-0.2417,-0.2416,-0.2414,-0.2372,-0.2373,-0.2373,-0.2373,-0.2253,-0.225,-0.2246,0,0,0,0,0,0,0,0,0,0,0,0,0,-0.271,-0.2707,-0.2531,-0.253,-0.2528,-0.2417,-0.2415,-0.2414,-0.2372,-0.2373,-0.2373,-0.2374,-0.2255,-0.225,-0.2246,0,0,0,0,0,0,0,0,0,0,0,0,0,-0.2618,-0.2706,-0.2531,-0.2494,-0.2489,-0.2417,-0.2415,-0.2413,-0.2372,-0.2373,-0.2373,-0.2374,-0.2256,-0.2251,-0.2246,-0.2201,0,0,-0.2229,-0.2227,0,0,0,0,0,0,0,0,-0.2623,-0.2611,-0.2501,-0.2496,-0.2491,-0.2409,-0.2435,-0.2342,-0.2372,-0.2417,-0.2373,-0.2374,-0.2305,-0.2295,-0.2273,-0.2195,-0.219,-0.2229,-0.2226,-0.2223,-0.2222,0,0,0,0,0,0,0,-0.263,-0.2616,-0.2486,-0.2499,-0.2493,-0.2482,-0.247,-0.2417,-0.2359,-0.2413,-0.2409,-0.2397,-0.2302,-0.2278,-0.2269,-0.2189,-0.2229,-0.2224,-0.2221,-0.2219,-0.207,-0.2069,0,0,0,0,0,0,-0.2643,-0.2622,-0.2489,-0.2482,-0.256,-0.2479,-0.2465,-0.2435,-0.2359,-0.2348,-0.2396,-0.2395,-0.2287,-0.2276,-0.2265,-0.2209,-0.2223,-0.2218,-0.2215,-0.2071,-0.207,-0.2069,0,0,0,0,0,0,-0.2647,-0.2631,-0.2494,-0.2551,-0.2533,-0.2475,-0.2442,-0.2433,-0.2408,-0.2347,-0.2336,-0.2382,-0.2287,-0.2273,-0.2218,-0.2204,-0.2216,-0.2211,-0.2071,-0.207,-0.2069,-0.2095,0,0,0,0,0,0,-0.2652,-0.2633,-0.2616,-0.2551,-0.253,-0.2449,-0.2441,-0.243,-0.24,-0.2397,-0.2331,-0.232,-0.2286,-0.2226,-0.2212,-0.2197,-0.2207,-0.2072,-0.2071,-0.207,-0.2095,-0.2095,-0.2095,0,0,0,0,0,-0.2658,-0.2627,-0.2615,-0.26,-0.2508,-0.2449,-0.2436,-0.2398,-0.2399,-0.2381,-0.2341,-0.2322,-0.2208,-0.2221,-0.2205,-0.2188,-0.2073,-0.2071,-0.207,-0.2095,-0.2095,-0.2095,0,0,0,0,0,0,-0.2691,-0.2618,-0.2604,-0.2551,-0.2506,-0.2442,-0.2418,-0.2399,-0.2353,-0.2352,-0.2306,-0.2292,-0.2241,-0.2208,-0.2224,-0.2141,-0.2139,-0.2134,-0.2164,-0.2163,-0.2163,-0.2172,-0.2202,0,0,0,0,0,-0.2692,-0.2651,-0.2589,-0.2548,-0.2526,-0.2476,-0.2449,-0.2424,-0.2376,-0.2356,-0.2313,-0.2266,-0.2219,-0.2189,-0.2143,-0.209,-0.2075,-0.2071,-0.2071,-0.2071,-0.2067,-0.2037,-0.2035,-0.2063,-0.2063,-0.2063,0,0,-0.2693,-0.2648,-0.2625,-0.2553,-0.2516,-0.2474,-0.2461,-0.2416,-0.2385,-0.2349,-0.2295,-0.2262,-0.2206,-0.2153,-0.2127,-0.2124,-0.2056,-0.2068,-0.2069,-0.2065,-0.2035,-0.2033,-0.203,-0.2062,-0.2062,-0.2062,0,0,-0.2675,-0.2636,-0.2598,-0.2562,-0.2506,-0.2473,-0.2464,-0.2402,-0.2379,-0.2324,-0.2297,-0.2258,-0.2178,-0.214,-0.211,-0.2078,-0.2059,-0.2064,-0.2063,-0.2035,-0.2032,-0.203,-0.2019,-0.2015,-0.2061,-0.2061,-0.2061,0,-0.2683,-0.262,-0.2581,-0.2539,-0.2508,-0.2475,-0.2436,-0.2402,-0.2333,-0.2312,-0.2311,-0.2211,-0.2171,-0.2108,-0.2101,-0.2078,-0.2066,-0.2071,-0.2036,-0.2033,-0.2031,-0.2019,-0.2015,-0.2062,-0.2062,-0.2061,-0.2061,0,-0.2633,-0.259,-0.2565,-0.2501,-0.2468,-0.2427,-0.2382,-0.2352,-0.233,-0.2297,-0.2242,-0.2194,-0.2137,-0.212,-0.2098,-0.2054,-0.2055,-0.2045,-0.2042,-0.203,-0.2018,-0.2014,-0.2063,-0.2063,-0.2062,-0.2062,0,0,-0.2631,-0.2547,-0.2539,-0.251,-0.2446,-0.2411,-0.2369,-0.2315,-0.2291,-0.2244,-0.2208,-0.2142,-0.2133,-0.2099,-0.2072,-0.2047,-0.2026,-0.204,-0.2038,-0.204,-0.1975,-0.1983,-0.1979,-0.2013,-0.2012,-0.2011,-0.198,0,-0.2605,-0.2529,-0.2493,-0.2433,-0.2392,-0.2361,-0.2324,-0.2281,-0.2249,-0.2209,-0.2173,-0.2128,-0.2119,-0.2099,-0.2073,-0.2034,-0.2012,-0.2035,-0.1978,-0.1976,-0.1993,-0.1973,-0.1981,-0.1954,-0.1975,-0.1975,-0.1974,0,-0.2563,-0.2519,-0.2455,-0.2397,-0.2378,-0.2346,-0.2294,-0.2256,-0.2206,-0.2185,-0.2148,-0.2122,-0.2076,-0.2077,-0.2013,-0.203,-0.2004,-0.1981,-0.1979,-0.1972,-0.1974,-0.1966,-0.1945,-0.1941,-0.1967,-0.1967,-0.1968,0,-0.2569,-0.2493,-0.2445,-0.2421,-0.2351,-0.2329,-0.2299,-0.225,-0.222,-0.2174,-0.2154,-0.2103,-0.2075,-0.2036,-0.1997,-0.2001,-0.1937,-0.1934,-0.1918,-0.1919,-0.1905,-0.1907,-0.188,-0.1889,-0.1889,-0.1889,-0.1889,0,-0.2543,-0.2505,-0.2447,-0.2417,-0.2374,-0.2333,-0.2291,-0.2258,-0.2215,-0.2178,-0.2147,-0.2114,-0.2064,-0.2023,-0.1992,-0.1944,-0.1932,-0.1913,-0.1905,-0.1916,-0.1918,-0.1898,-0.1899,-0.1888,-0.1888,-0.1888,-0.1888,0,-0.2542,-0.2501,-0.2447,-0.2386,-0.237,-0.2341,-0.2288,-0.2258,-0.2225,-0.2179,-0.2166,-0.2114,-0.2065,-0.2022,-0.1957,-0.1936,-0.1887,-0.1877,-0.1904,-0.19,-0.1886,-0.1888,-0.1845,-0.1838,-0.1852,-0.1852,-0.1852,0,-0.2528,-0.2499,-0.2435,-0.2409,-0.2379,-0.2337,-0.2307,-0.2265,-0.2235,-0.2176,-0.2153,-0.2102,-0.2059,-0.1982,-0.1938,-0.1888,-0.1877,-0.1866,-0.1869,-0.1881,-0.1877,-0.188,-0.1877,-0.1866,-0.1866,-0.1866,-0.1866,0,-0.2508,-0.249,-0.2448,-0.2398,-0.2363,-0.2322,-0.228,-0.226,-0.2211,-0.2178,-0.2128,-0.2095,-0.2029,-0.1979,-0.1924,-0.1892,-0.1871,-0.1866,-0.1859,-0.187,-0.1887,-0.1878,-0.1904,-0.1867,-0.1867,-0.1866,-0.1866,-0.1866,-0.25,-0.2473,-0.2424,-0.2378,-0.2342,-0.2304,-0.2273,-0.2237,-0.2195,-0.2139,-0.2116,-0.2066,-0.2017,-0.1942,-0.191,-0.1869,-0.1865,-0.1856,-0.1853,-0.1852,-0.1854,-0.1893,-0.1859,-0.1859,-0.1859,-0.1859,-0.1859,0,-0.2479,-0.2446,-0.2405,-0.2347,-0.2311,-0.2295,-0.2248,-0.2219,-0.2175,-0.2131,-0.209,-0.2033,-0.1984,-0.1937,-0.1886,-0.1862,-0.1851,-0.185,-0.1851,-0.1844,-0.186,-0.1871,-0.186,-0.186,-0.186,-0.186,-0.186,-0.186,-0.2464,-0.2417,-0.2393,-0.2327,-0.2294,-0.2245,-0.222,-0.2184,-0.2149,-0.2087,-0.2047,-0.2017,-0.1971,-0.1917,-0.1871,-0.1859,-0.1841,-0.1843,-0.1828,-0.1843,-0.1843,-0.1844,-0.1854,-0.184,-0.1839,-0.1815,-0.1815,-0.1815]},{"header":{"parameterUnit":"m.s-1","parameterCategory":1,"la1":30.2991,"la2":30.254,"lo1":-89.0895,"lo2":-89.0444,"dy":0.0017,"dx":0.0017,"nx":28,"ny":28,"refTime":"2024-07-03T09:00:00:Z","depth":0,"parameterNumber":3,"parameterNumberName":"V-component_of_WINDS"},"data":[0,0,0,0,0,0,0,0,0,0,0,0,0,0,0,0,0,0,0,0,0,0,0,0,0,0,0,0,0,0,0,0,0,0,0,0,0,0,0,0,0,0,0,0,0,0,0,0,0,0,0,0,0,0,0,0,0,0,4.2417,4.2417,0,4.238,4.2379,4.2379,4.2345,4.2345,4.2344,4.2344,4.2302,4.2302,4.2301,0,0,0,0,0,0,0,0,0,0,0,0,0,4.2458,4.2457,4.2417,4.2417,4.2416,4.238,4.2379,4.2379,4.2345,4.2345,4.2344,4.2344,4.2303,4.2302,4.2301,0,0,0,0,0,0,0,0,0,0,0,0,0,4.2432,4.2457,4.2417,4.2395,4.2393,4.238,4.2379,4.2379,4.2345,4.2345,4.2344,4.2344,4.2303,4.2302,4.2301,4.2305,0,0,4.2297,4.2297,0,0,0,0,0,0,0,0,4.2434,4.2431,4.2399,4.2397,4.2394,4.2367,4.2378,4.2354,4.2346,4.2363,4.2344,4.2343,4.2324,4.2321,4.2315,4.2303,4.2302,4.2297,4.2297,4.2296,4.2296,0,0,0,0,0,0,0,4.2436,4.2432,4.2402,4.2398,4.2396,4.2387,4.2382,4.2374,4.2347,4.2362,4.2359,4.2355,4.2323,4.2316,4.2314,4.2301,4.2297,4.2296,4.2296,4.2295,4.2293,4.2294,0,0,0,0,0,0,4.2441,4.2434,4.2403,4.2401,4.2413,4.2386,4.2382,4.2376,4.2347,4.2342,4.2356,4.2354,4.2319,4.2315,4.2312,4.2317,4.2296,4.2295,4.2294,4.2293,4.2293,4.2294,0,0,0,0,0,0,4.2442,4.2439,4.2405,4.2417,4.2412,4.2386,4.238,4.2375,4.2369,4.2343,4.2338,4.2355,4.2318,4.2314,4.2308,4.2315,4.2294,4.2293,4.2292,4.2293,4.2294,4.2326,0,0,0,0,0,0,4.2443,4.2439,4.2441,4.2417,4.2411,4.2402,4.2381,4.2375,4.2368,4.2365,4.234,4.2336,4.2317,4.231,4.2307,4.2313,4.2293,4.2291,4.2292,4.2293,4.2324,4.2328,4.2331,0,0,0,0,0,4.2445,4.245,4.2441,4.2438,4.2413,4.2402,4.2399,4.2378,4.2369,4.237,4.2354,4.2336,4.2315,4.231,4.2306,4.2312,4.2291,4.2292,4.2293,4.2323,4.2327,4.2331,0,0,0,0,0,0,4.2474,4.2447,4.2436,4.2434,4.2421,4.2397,4.2397,4.2384,4.2372,4.2369,4.2344,4.2338,4.2336,4.2323,4.2318,4.2316,4.2301,4.2301,4.2324,4.2328,4.2332,4.2335,4.2292,0,0,0,0,0,4.248,4.2474,4.2451,4.2451,4.2445,4.2423,4.2417,4.2403,4.2388,4.2382,4.2364,4.2349,4.234,4.2333,4.2322,4.2323,4.2317,4.2325,4.2329,4.2332,4.2333,4.2333,4.2337,4.2299,4.2299,4.2299,0,0,4.2493,4.2477,4.2475,4.2457,4.2445,4.2439,4.2418,4.2412,4.2408,4.238,4.2374,4.2361,4.2343,4.2341,4.2339,4.233,4.2342,4.2334,4.2336,4.2335,4.2335,4.2339,4.2342,4.23,4.23,4.2299,0,0,4.2513,4.2501,4.25,4.249,4.2472,4.2458,4.2458,4.2436,4.2427,4.2421,4.2401,4.2395,4.2378,4.2366,4.2358,4.2377,4.2361,4.2374,4.2392,4.2393,4.2396,4.2399,4.2406,4.2409,4.2375,4.2375,4.2375,0,4.253,4.2521,4.2502,4.2498,4.2491,4.2468,4.2468,4.2458,4.2438,4.2433,4.2424,4.2404,4.239,4.2386,4.2391,4.2385,4.2384,4.2376,4.2398,4.24,4.2402,4.2409,4.2412,4.2377,4.2377,4.2377,4.2377,0,4.2544,4.2539,4.254,4.2524,4.2517,4.2515,4.2495,4.249,4.2477,4.2464,4.2459,4.2442,4.2428,4.2426,4.2412,4.242,4.2415,4.2403,4.2386,4.2408,4.2414,4.2416,4.238,4.2379,4.2378,4.2378,0,0,4.2579,4.2554,4.2555,4.2548,4.2528,4.2523,4.2521,4.2509,4.2506,4.2494,4.2491,4.2479,4.2468,4.2458,4.2444,4.2445,4.2462,4.2432,4.2431,4.2438,4.2471,4.2481,4.2484,4.2452,4.2453,4.2453,4.2473,0,4.2596,4.2591,4.2575,4.2575,4.257,4.2549,4.2547,4.2535,4.2523,4.2517,4.2503,4.2495,4.248,4.2475,4.2475,4.246,4.2468,4.2458,4.2449,4.2449,4.2455,4.2487,4.2497,4.2516,4.2475,4.2475,4.2475,0,4.2615,4.2606,4.2606,4.2589,4.2586,4.2585,4.2574,4.2568,4.2554,4.2546,4.2537,4.2522,4.2518,4.2504,4.2499,4.2493,4.2488,4.2481,4.2481,4.2479,4.2463,4.2486,4.2522,4.2525,4.2479,4.2478,4.2478,0,4.2642,4.2629,4.2628,4.2623,4.2602,4.2602,4.2594,4.2579,4.2574,4.2564,4.2561,4.255,4.2545,4.2537,4.2519,4.251,4.2517,4.2501,4.2509,4.251,4.2511,4.2511,4.2547,4.2508,4.2508,4.2508,4.2508,0,4.2662,4.2663,4.264,4.2639,4.264,4.2621,4.2623,4.2612,4.26,4.2597,4.2578,4.2575,4.2552,4.2547,4.2533,4.2532,4.2529,4.2522,4.2518,4.2524,4.2525,4.252,4.2518,4.2509,4.2509,4.2508,4.2508,0,4.2691,4.2676,4.2674,4.2656,4.2651,4.2653,4.2637,4.2636,4.2624,4.262,4.2618,4.2599,4.2592,4.2574,4.2562,4.2553,4.2556,4.2548,4.2561,4.2558,4.2568,4.2568,4.2602,4.2606,4.2565,4.2565,4.2566,0,4.2706,4.2706,4.2689,4.2687,4.2679,4.2675,4.267,4.2652,4.2648,4.2634,4.2634,4.2627,4.2619,4.261,4.2594,4.2585,4.2578,4.2591,4.2576,4.2583,4.2579,4.2579,4.258,4.2594,4.2594,4.2595,4.2595,0,4.2733,4.2726,4.272,4.2712,4.2708,4.27,4.2692,4.2691,4.267,4.2667,4.266,4.2655,4.2644,4.2637,4.2626,4.2617,4.2603,4.26,4.2602,4.2607,4.2614,4.2611,4.2569,4.2599,4.2598,4.2598,4.2598,4.2598,4.2755,4.2755,4.2744,4.2739,4.2731,4.2724,4.2723,4.2712,4.2706,4.2697,4.2687,4.2682,4.267,4.2655,4.2647,4.2643,4.2635,4.2638,4.2638,4.2639,4.2642,4.2616,4.2641,4.2641,4.2641,4.2641,4.264,0,4.2781,4.2774,4.2769,4.2759,4.2756,4.2744,4.2735,4.2733,4.2729,4.272,4.2714,4.2708,4.2701,4.2687,4.2679,4.2679,4.2672,4.2677,4.2677,4.2675,4.2649,4.2649,4.2683,4.2683,4.2683,4.2683,4.2683,4.2683,4.2795,4.2795,4.2787,4.2784,4.2776,4.2773,4.2769,4.2763,4.2755,4.275,4.2745,4.2736,4.2725,4.2716,4.271,4.2706,4.2704,4.2712,4.2706,4.2681,4.2677,4.2673,4.2673,4.2711,4.2711,4.2732,4.2733,4.2733]}]]